NOAA 16 DEB, 41156

Orbit data source: Space-Track

NOAA 16 DEB, 41156 is space debris in SSO originally from a launch on Thu, 21 Sep 2000 UTC launched from the Air Force Western Test Range (AFWTR). Debris objects in space refer to the collection of defunct objects orbiting the Earth. Examples of debris include non-operational satellites, rocket bodies, and fragments generated from explosions, collisions, or faulty payload assembly.

Loading next visibility...
Identifier
41156, 2000-055CP
Orbit
SSO
Country
Flag of USUS
Related business
Manufacturer
Unknown
Mission
Spacecraft
Bus & Motor
Unknown
Mass
Unknown
Launch date (UTC)
2000-09-21 (25 years ago)
Launch vehicle
Unknown
Launch site
Air Force Western Test Range (AFWTR)
Object type
Payload
Rocket body
Debris
Shape & HBR
Unknown shape, 0.1 m
Radar Cross Section
Small (<0.1 m²)

Expand to show TLE details & history
Last TLE update: 19 hours ago

TLE from 19 hours ago
0 NOAA 16 DEB
1 41156U 00055CP  25290.62766216  .00034684  00000-0  56591-2 0  9994
2 41156  98.9487 167.5816 0033806 354.5698   5.5134 14.70432044516940
Epoch: 2025-10-17T15:03Z
TLE epoch observation values (Epoch: 2025-10-17T15:03:50.010Z)
Latitude
-0.00004°
Longitude
-84.74708°
Altitude
638.978 km
Speed
7.551 km/s
True Right ascension
11h 10m 19s
True Declination
0° 00' 00"
Sunlit
Object was in daylight at epoch
Visualization orbit readout
Latitude
Unknown
Longitude
Unknown
Altitude
Unknown
Speed
Unknown
Apparent Right ascension
Unknown
Apparent Declination
Unknown
Sunlit
N/A
Visualization observer readout
Local Sidereal Time
04:29:08
Azimuth
Unknown
Elevation
Unknown
Doppler factor
Unknown
Orbital elements
Apogee altitude
680.575 km
Perigee altitude
633.01 km
Semi-major axis
7,034.93 km
Eccentricity
0.00338
Inclination
98.9487°
RAAN
167.5816°
Arg. of periapsis
354.5698°
True anomaly
5.55078°
Mean anomaly
5.5134°
Eccentric anomaly
5.53207°
Mean motion
3.67835 °/min
Orbital period
97.87 mins
BSTAR
0.0056591
Loading maneuver chart data...
Computing Atmospheric mass density...
Loading historical data...
Loading historical data...
Loading historical data...
Loading historical data...
Loading historical data...
Loading historical data...
Loading historical data...

Documentation

Showing up to 5 results
|